Location: Malvern Link
(52.1333°N, 2.3000°W)
Time: 10:06:40
(UTC+00:00)

ATLAS 2AS CENTAUR R/B - Pass Details

Date: 18 September 2020
Orbit: 939 x 1273 km, 63.7° (Epoch: 19 October)

Event Time Altitude Azimuth Distance (km) Brightness Sun altitude
Rises 22:52:34 0° 239° (WSW) 4,221 5.7 -34.4°
Enters shadow 22:52:41 - 239° (WSW) 4,182 5.7 -34.5°
Exits shadow 22:59:05 30° 252° (WSW) 2,115 4.2 -34.8°
Maximum altitude 23:03:20 64° 324° (NW) 1,386 3.3 -35.0°
Drops below altitude 10° 23:11:04 10° 46° (NE) 3,187 5.4 -35.4°
Sets 23:13:49 0° 49° (NE) 4,117 6.1 -35.5°
